Annette Island, AK

3:21 PM AKST on December 16, 2017 (GMT -0900)
Annette Island

Weather History for PANT - October, 2013

Change the Weather History Date:

Thursday, October 3, 2013

  Actual Average Record
Temperature  
Mean Temperature 46 °F 50 °F  
Max Temperature 52 °F 55 °F 65 °F (1993)
Min Temperature 39 °F 45 °F 34 °F (2006)
Degree Days  
Heating Degree Days 19 15  
Month to date heating degree days 52 44  
Since 1 July heating degree days 614 779  
Cooling Degree Days 0    
Month to date cooling degree days 0  
Year to date cooling degree days 22  
Moisture  
Dew Point 46 °F    
Average Humidity 0    
Maximum Humidity 0    
Minimum Humidity 0    
Precipitation  
Precipitation 0.76 in 0.39 in 3.26 in (1984)
Month to date precipitation 0.96 1.18  
Year to date precipitation 60.07 65.88  
Snow  
Snow 0.00 in 0.00 in T in (1993)
Month to date snowfall 0.0 0.0  
Since 1 July snowfall 0.0 0.0  
Since 1 September snowfall 0.0 0.0  
Snow Depth 0.00 in    
Sea Level Pressure  
Sea Level Pressure 30.09 in    
Wind  
Wind Speed 18 mph (SE)    
Max Wind Speed 35 mph    
Max Gust Speed 53 mph    
Visibility 7 miles    
Events Rain    
T = Trace of Precipitation, MM = Missing Value Source: NWS Daily Summary

Daily Weather History Graph

Daily Weather History Graph

Search for Another Location

Airport or City:

Trip Planner

Search our weather history database for the weather conditions in past years. The results will help you decide how hot, cold, wet, or windy it might be!

Date:

Astronomy

Oct. 03, 2013 Rise Set
Actual Time 6:53 AM AKDT 6:15 PM AKDT
Civil Twilight 6:17 AM AKDT 6:51 PM AKDT
Nautical Twilight 5:35 AM AKDT 7:33 PM AKDT
Astronomical Twilight 4:51 AM AKDT 8:17 PM AKDT
Moon 5:26 AM AKDT (10/3) 5:30 PM AKDT (10/3)
Length of Visible Light 12h 34m
Length of Day
11h 22m
Waning Crescent, 2% of the Moon is Illuminated
Oct 3
Waning Crescent
Oct 4
New
Oct 11
First Quarter
Oct 18
Full
Oct 26
Last Quarter

Hourly Weather History & Observations

Time (AKDT) Temp. Dew Point Humidity Pressure Visibility Wind Dir Wind Speed Gust Speed Precip Events Conditions
12:14 AM 39.2 °F 39.2 °F 100% 30.18 in 1.8 mi Calm Calm - N/A   Partly Cloudy
12:28 AM 39.2 °F 39.2 °F 100% 30.19 in 4.0 mi Calm Calm - N/A   Partly Cloudy
12:53 AM 39.0 °F 39.0 °F 100% 30.19 in 10.0 mi Calm Calm - N/A   Clear
1:53 AM 48.0 °F 46.9 °F 96% 30.19 in 10.0 mi SE 6.9 mph - N/A   Clear
2:53 AM 48.0 °F 46.0 °F 93% 30.17 in 10.0 mi ESE 9.2 mph - N/A   Clear
3:53 AM 48.9 °F 45.0 °F 86% 30.15 in 10.0 mi SE 9.2 mph - N/A   Clear
4:53 AM 48.9 °F 45.0 °F 86% 30.15 in 10.0 mi ESE 12.7 mph 19.6 mph N/A   Clear
5:53 AM 50.0 °F 44.1 °F 80% 30.16 in 10.0 mi SE 11.5 mph 20.7 mph N/A   Mostly Cloudy
6:53 AM 50.0 °F 44.1 °F 80% 30.17 in 10.0 mi SE 11.5 mph 20.7 mph N/A   Scattered Clouds
7:15 AM 50.0 °F 44.6 °F 82% 30.16 in 10.0 mi ESE 12.7 mph 19.6 mph N/A   Mostly Cloudy
7:53 AM 50.0 °F 44.1 °F 80% 30.15 in 10.0 mi ESE 11.5 mph 18.4 mph N/A   Overcast
8:53 AM 50.0 °F 45.0 °F 83% 30.15 in 10.0 mi SE 17.3 mph - N/A   Overcast
9:53 AM 51.1 °F 45.0 °F 80% 30.15 in 10.0 mi SE 17.3 mph 26.5 mph N/A   Overcast
10:16 AM 51.8 °F 44.6 °F 76% 30.14 in 10.0 mi SE 13.8 mph 26.5 mph N/A   Overcast
10:53 AM 51.1 °F 45.0 °F 80% 30.14 in 10.0 mi SE 16.1 mph 26.5 mph N/A   Overcast
11:53 AM 50.0 °F 46.9 °F 89% 30.14 in 10.0 mi SE 13.8 mph 25.3 mph 0.02 in Rain Light Rain
12:53 PM 48.9 °F 46.9 °F 93% 30.13 in 2.0 mi SE 17.3 mph 28.8 mph 0.10 in Rain Rain
1:09 PM 50.0 °F 46.4 °F 87% 30.12 in 3.0 mi SE 19.6 mph 31.1 mph 0.02 in Rain Light Rain
1:53 PM 50.0 °F 46.9 °F 89% 30.12 in 7.0 mi SE 17.3 mph 24.2 mph 0.09 in Rain Light Rain
2:27 PM 48.2 °F 48.2 °F 100% 30.11 in 2.5 mi SE 18.4 mph 27.6 mph 0.05 in Rain Rain
2:45 PM 50.0 °F 48.2 °F 94% 30.10 in 5.0 mi SE 17.3 mph 31.1 mph 0.08 in Rain Light Rain
2:48 PM 50.0 °F 48.2 °F 94% 30.10 in 5.0 mi SSE 24.2 mph 34.5 mph 0.08 in Rain Light Rain
2:53 PM 50.0 °F 48.0 °F 93% 30.11 in 4.0 mi SE 23.0 mph 35.7 mph 0.08 in Rain Light Rain
3:07 PM 48.2 °F 48.2 °F 100% 30.09 in 2.0 mi SE 19.6 mph 29.9 mph 0.02 in Rain Light Rain
3:21 PM 48.2 °F 48.2 °F 100% 30.09 in 2.5 mi SE 17.3 mph 27.6 mph 0.03 in Rain Light Rain
3:53 PM 50.0 °F 48.9 °F 96% 30.09 in 1.8 mi SE 21.9 mph 38.0 mph 0.07 in Rain Light Rain
4:53 PM 50.0 °F 48.9 °F 96% 30.07 in 2.5 mi SE 24.2 mph 35.7 mph 0.13 in Rain Light Rain
4:55 PM 50.0 °F 48.2 °F 94% 30.07 in 3.0 mi SE 21.9 mph 35.7 mph 0.00 in Rain Light Rain
5:21 PM 50.0 °F 48.2 °F 94% 30.05 in 2.0 mi SE 18.4 mph 35.7 mph 0.04 in Rain Rain
5:27 PM 50.0 °F 48.2 °F 94% 30.05 in 3.0 mi SSE 20.7 mph 31.1 mph 0.05 in Rain Light Rain
5:53 PM 50.0 °F 48.9 °F 96% 30.04 in 10.0 mi SE 25.3 mph 39.1 mph 0.05 in   Overcast
6:53 PM 51.1 °F 48.0 °F 89% 30.01 in 10.0 mi SE 23.0 mph 39.1 mph 0.00 in   Overcast
8:53 PM 50.0 °F 48.0 °F 93% 29.94 in 7.0 mi SE 21.9 mph 39.1 mph 0.05 in Rain Light Rain
9:38 PM 50.0 °F 48.2 °F 94% 29.93 in 8.0 mi SE 25.3 mph 41.4 mph 0.01 in Rain Light Rain
9:53 PM 50.0 °F 48.9 °F 96% 29.94 in 6.0 mi SE 29.9 mph 44.9 mph 0.02 in Rain Light Rain
10:53 PM 50.0 °F 48.9 °F 96% 29.92 in 5.0 mi SE 26.5 mph 44.9 mph 0.05 in   Overcast
11:21 PM 50.0 °F 48.2 °F 94% 29.91 in 6.0 mi SE 25.3 mph 42.6 mph 0.01 in Rain Light Rain
11:53 PM 50.0 °F 48.9 °F 96% 29.91 in 9.0 mi SE 26.5 mph 42.6 mph 0.05 in Rain Light Rain